{"data":{"norad_id":43707,"epoch":"2026-09-14T07:25:42.529728Z","epoch_age_seconds":549297,"freshness":"STALE","line1":"1 43707U 18093B   26257.30952002  .00000009  00000+0  00000+0 0  9992","line2":"2 43707  54.1670 179.2666 0007508 338.2106  21.7735  1.86226671 53198","mean_motion":1.86226671,"eccentricity":0.0007508,"inclination_deg":54.167,"raan_deg":179.2666,"arg_perigee_deg":338.2106,"mean_anomaly_deg":21.7735,"bstar":0,"rev_number":5319,"period_min":773.25121706117,"perigee_km":21507.531740128,"apogee_km":21549.436322269,"semimajor_km":27906.621031199,"source":"CELESTRAK","updated_at":"2026-09-20T09:00:46.711257Z"}}